カタログに戻る

STARLINK-5089

運用中通信VLEO
NORAD 56148·PAYLOAD·🇺🇸 United States

打ち上げ Mar 29, 2023 から Cape Canaveral Space Force Station

Loading…

次のパス (今後24時間)

TLE

最新Source: CelesTrak SupGP

元期: Sep 14, 2026, 21:43 UTC

1 56148C 23046BH  26257.90534722 -.00002370  00000+0 -85881-4 0  2577
2 56148  43.0006 121.7027 0001165 250.7203 345.0058 15.27565521    16

AllMySatでSTARLINK-5089をリアルタイム追跡

Download on the App Store